Weather History for Russell, KS

Change the Weather History Date:

Friday, September 20, 2013

  Actual Average Record
Temperature  
Mean Temperature 62 °F -  
Max Temperature 75 °F 77 °F 95 °F (1955)
Min Temperature 50 °F 53 °F 37 °F (1983)
Degree Days  
Heating Degree Days 4    
Growing Degree Days 12 (Base 50)    
Moisture  
Dew Point 49 °F    
Average Humidity 66    
Maximum Humidity 93    
Minimum Humidity 40    
Precipitation  
Precipitation 0.00 in - - ()
Sea Level Pressure  
Sea Level Pressure 30.07 in    
Wind  
Wind Speed 7 mph (NNW)    
Max Wind Speed 13 mph    
Max Gust Speed -    
Visibility 10 miles    
Events      
Averages and records for this station are not official NWS values.
T = Trace of Precipitation, MM = Missing Value Source: NWS Daily Summary

Daily Weather History Graph

Daily Weather History Graph

Search for Another Location

Airport:

Trip Planner

Search our weather history database for the weather conditions in past years. The results will help you decide how hot, cold, wet, or windy it might be!

Date:

Astronomy

Sep. 20, 2013 Rise Set
Actual Time 7:21 AM CDT 7:35 PM CDT
Civil Twilight 6:54 AM CDT 8:01 PM CDT
Nautical Twilight 6:23 AM CDT 8:32 PM CDT
Astronomical Twilight 5:51 AM CDT 9:04 PM CDT
Moon 8:11 PM CDT (9/20) 8:36 AM CDT (9/20)
Length of Visible Light 13h 06m
Length of Day
12h 13m
Full, 98% of the Moon is Illuminated
Sep 20
Full
Sep 26
Last Quarter
Oct 4
New
Oct 11
First Quarter
Oct 18
Full

Hourly Weather History & Observations

Time (CDT) Temp. Dew Point Humidity Pressure Visibility Wind Dir Wind Speed Gust Speed Precip Events Conditions
12:53 AM 59.0 °F 52.0 °F 78% 30.06 in 10.0 mi North 5.8 mph - N/A   Clear
1:53 AM 57.9 °F 52.0 °F 81% 30.06 in 10.0 mi North 5.8 mph - N/A   Clear
2:53 AM 55.9 °F 51.1 °F 84% 30.06 in 10.0 mi North 6.9 mph - N/A   Clear
3:53 AM 53.1 °F 50.0 °F 89% 30.05 in 10.0 mi NNW 6.9 mph - N/A   Clear
4:53 AM 53.1 °F 51.1 °F 93% 30.07 in 10.0 mi NNW 9.2 mph - N/A   Clear
5:53 AM 52.0 °F 50.0 °F 93% 30.09 in 10.0 mi NNW 5.8 mph - N/A   Clear
6:53 AM 51.1 °F 48.9 °F 92% 30.11 in 10.0 mi NNW 8.1 mph - N/A   Clear
7:53 AM 50.0 °F 48.0 °F 93% 30.13 in 10.0 mi North 5.8 mph - N/A   Clear
8:53 AM 54.0 °F 48.0 °F 80% 30.14 in 10.0 mi North 8.1 mph - N/A   Scattered Clouds
9:53 AM 60.1 °F 46.9 °F 62% 30.14 in 10.0 mi NE 12.7 mph - N/A   Clear
10:53 AM 62.1 °F 46.0 °F 56% 30.15 in 10.0 mi NNE 10.4 mph - N/A   Clear
11:53 AM 66.0 °F 45.0 °F 47% 30.13 in 10.0 mi NE 8.1 mph - N/A   Clear
12:53 PM 68.0 °F 45.0 °F 43% 30.11 in 10.0 mi NE 6.9 mph - N/A   Clear
1:53 PM 70.0 °F 48.0 °F 46% 30.09 in 10.0 mi Variable 3.5 mph - N/A   Clear
2:53 PM 73.0 °F 50.0 °F 44% 30.06 in 10.0 mi North 8.1 mph - N/A   Clear
3:53 PM 72.0 °F 48.9 °F 44% 30.03 in 10.0 mi WNW 3.5 mph - N/A   Clear
4:53 PM 73.9 °F 48.0 °F 40% 30.01 in 10.0 mi Variable 4.6 mph - N/A   Clear
5:53 PM 73.0 °F 48.0 °F 41% 30.01 in 10.0 mi NW 5.8 mph - N/A   Clear
6:53 PM 71.1 °F 50.0 °F 47% 30.01 in 10.0 mi NW 3.5 mph - N/A   Clear
7:53 PM 66.9 °F 48.9 °F 52% 30.03 in 10.0 mi West 4.6 mph - N/A   Clear
8:53 PM 64.0 °F 48.9 °F 58% 30.03 in 10.0 mi Calm Calm - N/A   Clear
9:53 PM 60.1 °F 50.0 °F 69% 30.03 in 10.0 mi South 6.9 mph - N/A   Clear
10:53 PM 57.0 °F 50.0 °F 77% 30.03 in 10.0 mi North - - N/A   Clear
11:53 PM 55.0 °F 50.0 °F 83% 30.02 in 10.0 mi South 6.9 mph - N/A   Clear